• In Hungary
  • List of Countries
  • For 7 days
  • Water Temperature
  • Satellite Maps
  • Weather Map
  • News
  • Weather Widgets
  • user-avatar
    Login

    Hourly Weather Chuhunivka

    Today, 26 February, Monday

    Time Temperature Precipitation Wind Pressure Humidity
    00:00 -21°C° 0 mm 3 mps 750 mmHg 97%
    01:00 -22°C° 0 mm 3 mps 750 mmHg 97%
    02:00 -22°C° 0 mm 3 mps 750 mmHg 97%
    03:00 -20°C° 0 mm 2 mps 751 mmHg 98%
    04:00 -20°C° 0 mm 2 mps 751 mmHg 98%
    05:00 -21°C° 0 mm 2 mps 751 mmHg 98%
    06:00 -23°C° 0 mm 3 mps 751 mmHg 98%
    07:00 -22°C° 0 mm 3 mps 751 mmHg 97%
    08:00 -22°C° 0 mm 3 mps 751 mmHg 97%
    09:00 -22°C° 0 mm 3 mps 752 mmHg 96%
    10:00 -19°C° 0 mm 3 mps 752 mmHg 95%
    11:00 -18°C° 0 mm 3 mps 752 mmHg 93%
    12:00 -17°C° 0 mm 3 mps 752 mmHg 92%
    13:00 -16°C° 0 mm 3 mps 752 mmHg 91%
    14:00 -16°C° 0 mm 3 mps 752 mmHg 90%
    15:00 -15°C° 0 mm 3 mps 752 mmHg 89%
    16:00 -16°C° 0 mm 3 mps 752 mmHg 91%
    17:00 -17°C° 0 mm 3 mps 753 mmHg 92%
    18:00 -17°C° 0 mm 2 mps 753 mmHg 93%
    19:00 -19°C° 0 mm 3 mps 753 mmHg 94%
    20:00 -21°C° 0 mm 3 mps 753 mmHg 95%
    21:00 -22°C° 0 mm 3 mps 753 mmHg 96%
    22:00 -22°C° 0 mm 3 mps 753 mmHg 97%
    23:00 -23°C° 0 mm 3 mps 753 mmHg 97%

    Tomorrow, 27 February, Tuesday

    Time Temperature Precipitation Wind Pressure Humidity
    00:00 -23°C° 0 mm 3 mps 753 mmHg 98%
    01:00 -23°C° 0 mm 3 mps 754 mmHg 98%
    02:00 -23°C° 0 mm 3 mps 754 mmHg 98%
    03:00 -24°C° 0 mm 3 mps 754 mmHg 98%
    04:00 -24°C° 0 mm 3 mps 754 mmHg 97%
    05:00 -25°C° 0 mm 4 mps 754 mmHg 97%
    06:00 -25°C° 0 mm 4 mps 754 mmHg 96%
    07:00 -25°C° 0 mm 5 mps 754 mmHg 94%
    08:00 -24°C° 0 mm 5 mps 754 mmHg 92%
    09:00 -24°C° 0 mm 6 mps 754 mmHg 90%
    10:00 -22°C° 0 mm 6 mps 754 mmHg 88%
    11:00 -21°C° 0 mm 6 mps 754 mmHg 86%
    12:00 -19°C° 0 mm 7 mps 754 mmHg 83%
    13:00 -19°C° 0 mm 7 mps 754 mmHg 83%
    14:00 -18°C° 0 mm 8 mps 753 mmHg 82%
    15:00 -17°C° 0 mm 8 mps 753 mmHg 82%
    16:00 -17°C° 0 mm 8 mps 753 mmHg 82%
    17:00 -19°C° 0 mm 9 mps 753 mmHg 81%
    18:00 -19°C° 0 mm 9 mps 752 mmHg 81%
    19:00 -19°C° 0 mm 9 mps 753 mmHg 81%
    20:00 -19°C° 0 mm 9 mps 753 mmHg 81%
    21:00 -19°C° 0 mm 9 mps 753 mmHg 81%
    22:00 -19°C° 0.3 mm 9 mps 752 mmHg 84%
    23:00 -19°C° 0.3 mm 9 mps 752 mmHg 86%

    Day after tomorrow, 28 February, Wednesday

    Time Temperature Precipitation Wind Pressure Humidity
    00:00 -20°C° 0.3 mm 10 mps 752 mmHg 89%
    01:00 -19°C° 0.6 mm 10 mps 752 mmHg 89%
    02:00 -19°C° 0.6 mm 10 mps 751 mmHg 90%
    03:00 -19°C° 0.6 mm 10 mps 751 mmHg 91%
    04:00 -19°C° 0.3 mm 10 mps 750 mmHg 90%
    05:00 -19°C° 0.3 mm 10 mps 750 mmHg 90%
    06:00 -19°C° 0.3 mm 10 mps 749 mmHg 90%
    07:00 -18°C° 0.5 mm 10 mps 749 mmHg 91%
    08:00 -18°C° 0.5 mm 10 mps 749 mmHg 91%
    09:00 -17°C° 0.5 mm 10 mps 749 mmHg 92%
    10:00 -16°C° 0.4 mm 9 mps 749 mmHg 92%
    11:00 -15°C° 0.4 mm 9 mps 749 mmHg 92%
    12:00 -14°C° 0.4 mm 9 mps 749 mmHg 92%
    13:00 -12°C° 0.2 mm 8 mps 749 mmHg 92%
    14:00 -12°C° 0.2 mm 8 mps 750 mmHg 92%
    15:00 -11°C° 0.2 mm 7 mps 750 mmHg 92%
    16:00 -11°C° 0.1 mm 7 mps 750 mmHg 92%
    17:00 -11°C° 0.1 mm 7 mps 750 mmHg 92%
    18:00 -11°C° 0.1 mm 6 mps 751 mmHg 93%
    19:00 -11°C° 0.1 mm 6 mps 751 mmHg 93%
    20:00 -11°C° 0.1 mm 6 mps 751 mmHg 93%
    21:00 -11°C° 0.1 mm 6 mps 751 mmHg 94%
    22:00 -12°C° 0.1 mm 6 mps 752 mmHg 94%
    23:00 -12°C° 0.1 mm 6 mps 752 mmHg 94%

    1 March, Thursday

    Time Temperature Precipitation Wind Pressure Humidity
    00:00 -12°C° 0.1 mm 6 mps 752 mmHg 94%
    01:00 -14°C° 0 mm 6 mps 752 mmHg 94%
    02:00 -14°C° 0 mm 6 mps 752 mmHg 94%
    03:00 -14°C° 0 mm 6 mps 752 mmHg 94%
    04:00 -15°C° 0 mm 6 mps 752 mmHg 94%
    05:00 -15°C° 0 mm 7 mps 751 mmHg 94%
    06:00 -15°C° 0 mm 7 mps 751 mmHg 94%
    07:00 -15°C° 0.2 mm 7 mps 751 mmHg 94%
    08:00 -15°C° 0.2 mm 7 mps 751 mmHg 94%
    09:00 -16°C° 0.2 mm 8 mps 751 mmHg 94%
    10:00 -16°C° 0.6 mm 8 mps 750 mmHg 93%
    11:00 -15°C° 0.6 mm 9 mps 750 mmHg 92%
    12:00 -15°C° 0.6 mm 9 mps 750 mmHg 91%
    13:00 -14°C° 0.3 mm 9 mps 750 mmHg 89%
    14:00 -14°C° 0.3 mm 9 mps 750 mmHg 87%
    15:00 -14°C° 0.3 mm 9 mps 749 mmHg 85%
    16:00 -14°C° 0.2 mm 9 mps 749 mmHg 84%
    17:00 -14°C° 0.2 mm 9 mps 749 mmHg 83%
    18:00 -15°C° 0.2 mm 9 mps 749 mmHg 83%
    19:00 -15°C° 0.6 mm 9 mps 749 mmHg 85%
    20:00 -15°C° 0.6 mm 9 mps 749 mmHg 87%
    21:00 -15°C° 0.6 mm 8 mps 749 mmHg 89%
    22:00 -15°C° 0.5 mm 8 mps 749 mmHg 90%
    23:00 -15°C° 0.5 mm 8 mps 749 mmHg 90%

    2 March, Friday

    Time Temperature Precipitation Wind Pressure Humidity
    00:00 -15°C° 0.5 mm 8 mps 749 mmHg 91%
    01:00 -15°C° 0.4 mm 8 mps 749 mmHg 91%
    02:00 -14°C° 0.4 mm 7 mps 749 mmHg 92%
    03:00 -14°C° 0.4 mm 7 mps 749 mmHg 92%
    04:00 -15°C° 0.2 mm 7 mps 749 mmHg 92%
    05:00 -15°C° 0.2 mm 7 mps 749 mmHg 93%
    06:00 -15°C° 0.2 mm 6 mps 749 mmHg 93%
    07:00 -15°C° 0.1 mm 6 mps 750 mmHg 93%
    08:00 -14°C° 0.1 mm 6 mps 750 mmHg 93%
    09:00 -14°C° 0.1 mm 6 mps 750 mmHg 94%
    10:00 -14°C° 0 mm 6 mps 750 mmHg 94%
    11:00 -12°C° 0 mm 6 mps 750 mmHg 94%
    12:00 -11°C° 0 mm 6 mps 750 mmHg 94%
    13:00 -11°C° 0 mm 5 mps 750 mmHg 94%
    14:00 -10°C° 0 mm 5 mps 750 mmHg 93%
    15:00 -8°C° 0 mm 5 mps 750 mmHg 93%
    16:00 -8°C° 0.1 mm 5 mps 750 mmHg 93%
    17:00 -8°C° 0.1 mm 4 mps 750 mmHg 93%
    18:00 -8°C° 0.1 mm 4 mps 750 mmHg 93%
    19:00 -9°C° 0 mm 4 mps 750 mmHg 94%
    20:00 -9°C° 0 mm 4 mps 750 mmHg 94%
    21:00 -9°C° 0 mm 3 mps 750 mmHg 95%
    22:00 -9°C° 0 mm 3 mps 750 mmHg 95%
    23:00 -9°C° 0 mm 3 mps 750 mmHg 96%

    3 March, Saturday

    Time Temperature Precipitation Wind Pressure Humidity
    00:00 -8°C° 0 mm 2 mps 750 mmHg 96%
    01:00 -9°C° 0 mm 2 mps 750 mmHg 96%
    02:00 -9°C° 0 mm 2 mps 750 mmHg 96%
    03:00 -9°C° 0 mm 2 mps 749 mmHg 96%
    04:00 -10°C° 0 mm 2 mps 749 mmHg 96%
    05:00 -10°C° 0 mm 2 mps 749 mmHg 96%
    06:00 -12°C° 0 mm 2 mps 749 mmHg 96%
    07:00 -12°C° 0 mm 2 mps 749 mmHg 96%
    08:00 -12°C° 0 mm 2 mps 749 mmHg 96%
    09:00 -10°C° 0 mm 2 mps 749 mmHg 96%
    10:00 -10°C° 0 mm 2 mps 749 mmHg 94%
    11:00 -9°C° 0 mm 2 mps 749 mmHg 92%
    12:00 -8°C° 0 mm 2 mps 749 mmHg 90%
    13:00 -7°C° 0 mm 2 mps 748 mmHg 88%
    14:00 -7°C° 0 mm 2 mps 748 mmHg 87%
    15:00 -6°C° 0 mm 2 mps 748 mmHg 85%
    16:00 -7°C° 0 mm 2 mps 747 mmHg 87%
    17:00 -7°C° 0 mm 2 mps 747 mmHg 89%
    18:00 -7°C° 0 mm 1 mps 747 mmHg 90%
    19:00 -9°C° 0 mm 2 mps 747 mmHg 91%
    20:00 -9°C° 0 mm 2 mps 747 mmHg 92%
    21:00 -10°C° 0 mm 2 mps 747 mmHg 93%
    22:00 -10°C° 0.1 mm 2 mps 747 mmHg 93%
    23:00 -9°C° 0.1 mm 2 mps 746 mmHg 94%
    Show more